User: anonymous   Login
Location: Unspecified
(0.0000°N, 0.0000°E)
Time: 19:13:15
(UTC+00:00)
Language:

TBA - TO BE ASSIGNED - Orbit

View from above orbital plane
View from above orbital plane
View from above satellite
View from above satellite

Ground track
Ground track

The orbit is defined by the following mean orbital elements,

1 68875U          26145.54446080 +.00000000 +00000-0 +71151-3 0 00004
2 68875  51.8784 352.0252 0007735 218.4885 141.5551 15.36888221    02
Epoch (UTC): 25 May 2026 13:04:01
Eccentricity: 0.0007735
inclination: 51.8784°
perigee height: 450 km
apogee height: 461 km
right ascension of ascending node: 352.0252°
argument of perigee: 218.4885°
revolutions per day: 15.36888221
mean anomaly at epoch: 141.5551°

The dashed part of the orbit path shows where the satellite is in the earth's shadow,  

DLR